$Date,$Time,DM0201B,DM0203B,DM0205B,DM0207B,DM0209B
12/03/98,00:00:01,74,340,-11,554,961
12/03/98,00:05:01,46,328,-11,558,961
12/03/98,00:10:01,66,343,-11,559,961
12/03/98,00:15:01,44,357,-10,561,961
12/03/98,00:20:01,70,353,-10,563,961
12/03/98,00:25:01,28,321,-10,566,961
12/03/98,00:30:01,41,318,-10,567,961
12/03/98,00:35:01,24,326,-10,568,961
12/03/98,00:40:01,44,309,-10,573,961
12/03/98,00:45:01,59,307,-10,573,961
12/03/98,00:50:01,57,302,-10,575,961
12/03/98,00:55:01,68,316,-10,575,961
12/03/98,01:00:01,61,308,-10,577,961
12/03/98,01:05:01,41,314,-10,576,961
12/03/98,01:10:01,71,326,-10,576,959
12/03/98,01:15:01,44,334,-10,575,959
12/03/98,01:20:01,49,344,-10,575,959
12/03/98,01:25:01,64,351,-10,575,959
12/03/98,01:30:01,67,321,-10,577,959
12/03/98,01:35:01,76,324,-10,577,959
12/03/98,01:40:01,84,330,-10,579,959
12/03/98,01:45:01,101,336,-10,579,959
12/03/98,01:50:01,63,350,-10,579,959
12/03/98,01:55:01,84,344,-10,579,959
12/03/98,02:00:01,100,356,-10,579,959
12/03/98,02:05:01,89,340,-9,579,959
12/03/98,02:10:01,91,346,-9,579,959
12/03/98,02:15:01,98,333,-9,577,959
12/03/98,02:20:01,82,345,-8,577,959
12/03/98,02:25:01,77,319,-7,575,959
12/03/98,02:30:01,86,352,-7,575,959
12/03/98,02:35:01,70,348,-7,573,959
12/03/98,02:40:01,78,337,-6,571,959
12/03/98,02:45:01,97,340,-7,569,959
12/03/98,02:50:01,83,354,-6,567,959
12/03/98,02:55:01,97,328,-6,563,959
12/03/98,03:00:01,69,352,-6,561,959
12/03/98,03:05:01,81,348,-6,559,959
12/03/98,03:10:01,89,351,-6,556,959
12/03/98,03:15:01,88,350,-6,556,959
12/03/98,03:20:01,99,4,-6,554,959
12/03/98,03:25:01,118,347,-6,552,959
12/03/98,03:30:01,93,347,-6,550,959
12/03/98,03:35:01,64,344,-6,546,959
12/03/98,03:40:01,92,356,-5,541,959
12/03/98,03:45:01,92,356,-6,541,959
12/03/98,03:50:01,98,3,-6,537,959
12/03/98,03:55:01,100,354,-5,535,959
12/03/98,04:00:01,81,355,-5,533,959
12/03/98,04:05:01,95,356,-6,529,959
12/03/98,04:10:01,87,4,-6,527,959
12/03/98,04:15:01,103,356,-5,525,959
12/03/98,04:20:01,113,349,-5,521,959
12/03/98,04:25:01,92,8,-5,519,959
12/03/98,04:30:01,89,352,-5,517,959
12/03/98,04:35:01,78,357,-5,513,959
12/03/98,04:40:01,89,352,-5,511,959
12/03/98,04:45:01,103,357,-5,507,959
12/03/98,04:50:01,84,350,-4,505,959
12/03/98,04:55:01,72,354,-5,501,959
12/03/98,05:00:01,111,345,-4,499,959
12/03/98,05:05:01,87,2,-5,495,959
12/03/98,05:10:01,99,358,-4,493,959
12/03/98,05:15:01,93,356,-4,489,959
12/03/98,05:20:01,106,341,-4,485,959
12/03/98,05:25:01,112,351,-5,481,959
12/03/98,05:30:01,98,346,-4,481,959
12/03/98,05:35:01,127,356,-4,477,959
12/03/98,05:40:01,105,347,-4,409,959
12/03/98,05:45:01,73,335,-4,458,959
12/03/98,05:50:01,94,347,-4,453,959
12/03/98,05:55:01,104,332,-4,461,959
12/03/98,06:00:01,103,345,-5,453,959
12/03/98,06:05:01,120,347,-5,450,959
12/03/98,06:10:01,101,347,-5,446,959
12/03/98,06:15:01,115,337,-5,442,959
12/03/98,06:20:01,118,337,-5,438,959
12/03/98,06:25:01,104,336,-5,434,959
12/03/98,06:30:01,128,336,-5,430,959
12/03/98,06:35:01,112,342,-5,426,959
12/03/98,06:40:01,116,335,-5,420,959
12/03/98,06:45:01,92,347,-4,416,959
12/03/98,06:50:01,124,342,-5,412,959
12/03/98,06:55:01,97,337,-5,406,959
12/03/98,07:00:01,113,341,-5,402,959
12/03/98,07:05:01,124,345,-5,396,959
12/03/98,07:10:01,110,342,-5,392,959
12/03/98,07:15:01,107,333,-5,388,959
12/03/98,07:20:01,118,333,-5,384,959
12/03/98,07:25:01,118,335,-5,379,959
12/03/98,07:30:01,136,334,-5,357,959
12/03/98,07:35:01,133,337,-6,364,959
12/03/98,07:40:01,138,347,-6,345,959
12/03/98,07:45:01,115,338,-6,317,959
12/03/98,07:50:01,120,340,-6,351,959
12/03/98,07:55:01,122,337,-6,349,959
12/03/98,08:00:01,130,341,-6,343,959
12/03/98,08:05:01,120,341,-7,337,959
12/03/98,08:10:01,112,333,-6,331,959
12/03/98,08:15:01,107,338,-6,325,959
12/03/98,08:20:01,133,327,-6,323,959
12/03/98,08:25:01,112,325,-6,317,959
12/03/98,08:30:01,121,325,-6,313,959
12/03/98,08:35:01,128,339,-6,305,959
12/03/98,08:40:01,113,328,-6,299,959
12/03/98,08:45:01,124,339,-7,295,959
12/03/98,08:50:01,111,337,-7,289,959
12/03/98,08:55:01,112,344,-6,285,959
12/03/98,09:00:01,126,322,-6,279,959
12/03/98,09:05:01,115,332,-6,275,959
12/03/98,09:10:01,130,335,-7,271,957
12/03/98,09:15:01,145,338,-7,265,957
12/03/98,09:20:01,135,336,-7,194,957
12/03/98,09:25:01,148,336,-7,166,957
12/03/98,09:30:01,128,328,-7,46,957
12/03/98,09:35:01,129,328,-8,46,957
12/03/98,09:40:01,135,339,-8,44,957
12/03/98,09:45:01,127,339,-8,44,957
12/03/98,09:50:01,118,339,-7,62,957
12/03/98,09:55:01,118,339,-8,227,957
12/03/98,10:00:01,126,339,-8,229,957
12/03/98,10:05:01,116,339,-8,225,957
12/03/98,10:10:01,123,339,-8,221,957
12/03/98,10:15:01,128,328,-8,217,957
12/03/98,10:20:01,119,331,-8,215,957
12/03/98,10:25:01,135,332,-8,211,957
12/03/98,10:30:01,129,331,-8,207,957
12/03/98,10:35:01,132,331,-8,203,957
12/03/98,10:40:01,133,331,-9,201,957
12/03/98,10:45:01,104,341,-8,197,957
12/03/98,10:50:01,110,342,-8,193,957
12/03/98,10:55:01,113,329,-8,191,957
12/03/98,11:00:01,102,340,-8,187,957
12/03/98,11:05:01,99,336,-8,185,957
12/03/98,11:10:01,98,336,-9,183,957
12/03/98,11:15:01,89,331,-9,179,957
12/03/98,11:20:01,116,333,-9,177,957
12/03/98,11:25:01,90,335,-8,175,957
12/03/98,11:30:01,88,332,-8,171,957
12/03/98,11:35:01,91,332,-8,169,957
12/03/98,11:40:01,113,332,-8,169,957
12/03/98,11:45:01,89,332,-9,166,957
12/03/98,11:50:01,80,331,-8,167,957
12/03/98,11:55:01,93,333,-8,161,957
12/03/98,12:00:01,125,331,-9,160,957
12/03/98,12:05:01,112,332,-9,160,957
12/03/98,12:10:01,116,332,-9,158,957
12/03/98,12:15:01,108,325,-10,157,957
12/03/98,12:20:01,104,339,-10,156,957
12/03/98,12:25:01,91,332,-10,154,957
12/03/98,12:30:01,99,330,-10,154,957
12/03/98,12:35:01,104,342,-10,152,957
12/03/98,12:40:01,93,320,-10,152,957
12/03/98,12:45:01,94,319,-10,152,957
12/03/98,12:50:01,75,320,-10,152,957
12/03/98,12:55:01,85,343,-10,152,957
12/03/98,13:00:01,97,325,-10,150,957
12/03/98,13:05:01,101,325,-10,152,957
12/03/98,13:10:01,104,339,-10,156,957
12/03/98,13:15:01,89,339,-11,154,957
12/03/98,13:20:01,80,339,-11,158,957
12/03/98,13:25:01,85,340,-11,164,957
12/03/98,13:30:01,55,350,-11,167,957
12/03/98,13:35:01,65,340,-11,187,957
12/03/98,13:40:01,51,327,-10,168,957
12/03/98,13:45:01,38,327,-11,164,957
12/03/98,13:50:01,38,327,-11,164,957
12/03/98,13:55:01,38,332,-11,166,957
12/03/98,14:00:01,27,321,-11,174,957
12/03/98,14:05:01,28,358,-11,71,957
12/03/98,14:10:01,52,337,-11,116,957
12/03/98,14:15:01,61,330,-11,180,957
12/03/98,14:20:01,37,351,-11,175,957
12/03/98,14:25:01,35,319,-11,186,957
12/03/98,14:30:01,46,343,-11,195,957
12/03/98,14:35:01,57,344,-11,209,957
12/03/98,14:40:01,60,352,-11,210,957
12/03/98,14:45:01,63,350,-11,204,957
12/03/98,14:50:01,70,323,-11,208,957
12/03/98,14:55:01,90,339,-11,196,957
12/03/98,15:00:01,103,342,-10,229,957
12/03/98,15:05:01,74,356,-10,221,957
12/03/98,15:10:01,57,329,-11,195,957
12/03/98,15:15:01,90,353,-11,248,957
12/03/98,15:20:01,81,1,-10,240,957
12/03/98,15:25:01,65,351,-10,240,957
12/03/98,15:30:01,56,24,-10,177,957
12/03/98,15:35:01,78,6,-10,242,957
12/03/98,15:40:01,70,4,-10,166,957
12/03/98,15:45:01,66,249,-10,96,957
12/03/98,15:50:01,50,11,-10,266,957
12/03/98,15:55:01,45,1,-10,255,957
12/03/98,16:00:01,78,359,-10,241,957
12/03/98,16:05:01,72,357,-10,261,957
12/03/98,16:10:01,83,353,-10,265,957
12/03/98,16:15:01,64,345,-10,153,957
12/03/98,16:20:01,88,340,-10,289,957
12/03/98,16:25:01,70,356,-10,279,957
12/03/98,16:30:01,69,353,-10,273,957
12/03/98,16:35:01,79,355,-10,300,957
12/03/98,16:40:01,65,1,-10,203,957
12/03/98,16:45:01,45,353,-10,286,957
12/03/98,16:50:01,52,18,-10,163,957
12/03/98,16:55:01,49,11,-10,293,957
12/03/98,17:00:01,49,339,-10,297,957
12/03/98,17:05:01,55,6,-10,71,957
12/03/98,17:10:01,31,1,-10,202,957
12/03/98,17:15:01,41,5,-10,276,957
12/03/98,17:20:01,59,5,-10,237,957
12/03/98,17:25:01,70,354,-10,205,957
12/03/98,17:30:01,52,88,-10,319,957
12/03/98,17:35:01,61,7,-10,249,957
12/03/98,17:40:01,60,344,-10,189,957
12/03/98,17:45:01,23,331,-10,303,957
12/03/98,17:50:01,26,12,-10,413,957
12/03/98,17:55:01,36,10,-10,210,957
12/03/98,18:00:01,32,357,-10,200,957
12/03/98,18:05:01,42,2,-10,276,957
12/03/98,18:10:01,27,1,-9,401,957
12/03/98,18:15:01,31,350,-9,186,957
12/03/98,18:20:01,24,330,-10,216,957
12/03/98,18:25:01,35,356,-10,163,957
12/03/98,18:30:01,63,358,-10,509,957
12/03/98,18:35:01,73,359,-10,409,957
12/03/98,18:40:01,71,342,-10,318,957
12/03/98,18:45:01,54,341,-10,446,957
12/03/98,18:50:01,44,342,-10,321,957
12/03/98,18:55:01,59,350,-10,445,957
12/03/98,19:00:01,45,336,-10,207,957
12/03/98,19:05:01,70,357,-10,295,957
12/03/98,19:10:01,86,336,-9,315,957
12/03/98,19:15:01,42,339,-9,252,957
12/03/98,19:20:01,78,353,-9,264,957
12/03/98,19:25:01,62,6,-9,159,957
12/03/98,19:30:01,52,357,-9,308,957
12/03/98,19:35:01,57,353,-9,291,957
12/03/98,19:40:01,70,349,-9,243,957
12/03/98,19:45:01,76,348,-9,189,957
12/03/98,19:50:01,81,340,-9,320,957
12/03/98,19:55:01,92,352,-9,264,957
12/03/98,20:00:01,74,354,-9,281,957
12/03/98,20:05:01,90,1,-9,258,957
12/03/98,20:10:01,51,347,-9,284,957
12/03/98,20:15:01,95,349,-9,353,957
12/03/98,20:20:01,48,344,-9,483,957
12/03/98,20:25:01,58,1,-9,262,957
12/03/98,20:30:01,59,351,-9,450,957
12/03/98,20:35:01,85,10,-9,258,957
12/03/98,20:40:01,86,356,-9,428,957
12/03/98,20:45:01,86,13,-9,255,957
12/03/98,20:50:01,80,3,-9,275,957
12/03/98,20:55:01,75,1,-9,315,957
12/03/98,21:00:01,63,1,-9,366,957
12/03/98,21:05:01,88,1,-9,284,957
12/03/98,21:10:01,68,1,-10,397,957
12/03/98,21:15:01,91,13,-9,279,957
12/03/98,21:20:01,71,12,-9,345,957
12/03/98,21:25:01,76,12,-9,516,957
12/03/98,21:30:01,86,2,-10,433,957
12/03/98,21:35:01,94,2,-10,403,957
12/03/98,21:40:01,111,356,-10,364,957
12/03/98,21:45:01,103,19,-9,264,957
12/03/98,21:50:01,100,6,-10,487,957
12/03/98,21:55:01,93,14,-9,429,957
12/03/98,22:00:01,103,14,-9,357,957
12/03/98,22:05:01,92,20,-9,416,957
12/03/98,22:10:01,88,28,-9,523,957
12/03/98,22:15:01,101,17,-9,508,957
12/03/98,22:20:01,99,4,-9,514,957
12/03/98,22:25:01,92,14,-9,519,957
12/03/98,22:30:01,104,16,-9,515,957
12/03/98,22:35:01,93,22,-9,523,957
12/03/98,22:40:01,97,19,-9,520,957
12/03/98,22:45:01,81,18,-9,524,957
12/03/98,22:50:01,71,25,-9,501,957
12/03/98,22:55:01,76,18,-9,528,957
12/03/98,23:00:01,74,17,-9,527,957
12/03/98,23:05:01,75,6,-9,530,957
12/03/98,23:10:01,48,355,-9,534,957
12/03/98,23:15:01,75,11,-9,539,957
12/03/98,23:20:01,64,14,-9,533,957
12/03/98,23:25:01,61,7,-9,543,957
12/03/98,23:30:01,58,16,-9,545,957
12/03/98,23:35:01,64,27,-9,546,957
12/03/98,23:40:01,59,12,-9,549,957
12/03/98,23:45:01,66,37,-9,550,957
12/03/98,23:50:01,64,30,-9,554,957
12/03/98,23:55:01,58,18,-9,559,957
12/04/98,00:00:01,48,33,-9,558,957
